Weather History for Fosston, MN

Change the Weather History Date:

Wednesday, May 13, 2009

  Actual Average Record
Temperature  
Mean Temperature 60 °F -  
Max Temperature 66 °F 66 °F 90 °F (1991)
Min Temperature 53 °F 39 °F 24 °F (1953)
Degree Days  
Heating Degree Days 6    
Growing Degree Days 10 (Base 50)    
Moisture  
Dew Point 49 °F    
Average Humidity 69    
Maximum Humidity 88    
Minimum Humidity 40    
Precipitation  
Precipitation 0.11 in - - ()
Sea Level Pressure  
Sea Level Pressure 29.39 in    
Wind  
Wind Speed 24 mph (SW)    
Max Wind Speed 34 mph    
Max Gust Speed 46 mph    
Visibility 10 miles    
Events Rain , Thunderstorm    
Averages and records for this station are not official NWS values.
T = Trace of Precipitation, MM = Missing Value Source: NWS Daily Summary

Daily Weather History Graph

Daily Weather History Graph

Search for Another Location

Airport:

Trip Planner

Search our weather history database for the weather conditions in past years. The results will help you decide how hot, cold, wet, or windy it might be!

Date:

Astronomy

May. 13, 2009 Rise Set
Actual Time 5:47 AM CDT 8:51 PM CDT
Civil Twilight 5:11 AM CDT 9:28 PM CDT
Nautical Twilight 4:24 AM CDT 10:15 PM CDT
Astronomical Twilight 3:27 AM CDT 11:13 PM CDT
Moon 12:39 AM CDT (5/13) 8:50 AM CDT (5/13)
Length of Visible Light 16h 16m
Length of Day
15h 03m
Waning Gibbous, 82% of the Moon is Illuminated
May 13
Waning Gibbous
May 17
Last Quarter
May 24
New
May 30
First Quarter
Jun 7
Full

Hourly Weather History & Observations

Time (CDT) Temp. Windchill Dew Point Humidity Pressure Visibility Wind Dir Wind Speed Gust Speed Precip Events Conditions
12:15 AM 59.0 °F - 53.6 °F 82% 29.41 in 10.0 mi SSE 23.0 mph 32.2 mph N/A   Light Drizzle
12:35 AM 59.0 °F - 53.6 °F 82% 29.41 in 10.0 mi South 20.7 mph 28.8 mph N/A Thunderstorm Unknown
12:55 AM 59.0 °F - 53.6 °F 82% 29.39 in 7.0 mi South 21.9 mph 27.6 mph N/A   Drizzle
1:15 AM 59.0 °F - 53.6 °F 82% 29.38 in 10.0 mi South 20.7 mph 26.5 mph N/A   Overcast
1:35 AM 59.0 °F - 53.6 °F 82% 29.36 in 7.0 mi SSE 23.0 mph 29.9 mph N/A Rain Light Rain
1:55 AM 59.0 °F - 55.4 °F 88% 29.35 in 7.0 mi South 32.2 mph 41.4 mph 0.03 in Rain Light Rain
2:15 AM 59.0 °F - 55.4 °F 88% 29.34 in 10.0 mi South 32.2 mph 43.7 mph 0.01 in Rain Light Rain
2:35 AM 59.0 °F - 55.4 °F 88% 29.31 in 10.0 mi South 29.9 mph 42.6 mph 0.01 in Rain Light Rain
2:55 AM 59.0 °F - 55.4 °F 88% 29.25 in 10.0 mi SSE 34.5 mph 46.0 mph 0.01 in   Light Drizzle
3:15 AM 60.8 °F - 55.4 °F 82% 29.28 in 10.0 mi SSE 20.7 mph 29.9 mph N/A   Scattered Clouds
3:35 AM 59.0 °F - 55.4 °F 88% 29.29 in 10.0 mi South 21.9 mph - N/A   Mostly Cloudy
3:55 AM 59.0 °F - 55.4 °F 88% 29.30 in 5.0 mi South 21.9 mph 29.9 mph 0.01 in Rain Rain
4:15 AM 59.0 °F - 55.4 °F 88% 29.29 in 10.0 mi South 25.3 mph 34.5 mph 0.05 in   Overcast
4:35 AM 59.0 °F - 55.4 °F 88% 29.29 in 10.0 mi South 23.0 mph 31.1 mph 0.05 in   Overcast
4:55 AM 60.8 °F - 55.4 °F 82% 29.29 in 10.0 mi South 27.6 mph 35.7 mph 0.05 in   Overcast
5:15 AM 57.2 °F - 53.6 °F 88% 29.31 in 10.0 mi WSW 20.7 mph 39.1 mph 0.01 in Rain Light Rain
5:35 AM 55.4 °F - 51.8 °F 88% 29.32 in 10.0 mi SW 19.6 mph 24.2 mph 0.01 in   Mostly Cloudy
5:55 AM 53.6 °F - 50.0 °F 88% 29.33 in 10.0 mi SW 18.4 mph 26.5 mph 0.01 in   Scattered Clouds
6:15 AM 53.6 °F - 48.2 °F 82% 29.34 in 10.0 mi SW 18.4 mph 23.0 mph N/A   Clear
6:35 AM 53.6 °F - 48.2 °F 82% 29.35 in 10.0 mi SW 16.1 mph 21.9 mph N/A   Clear
6:55 AM 53.6 °F - 48.2 °F 82% 29.36 in 10.0 mi SW 17.3 mph 23.0 mph N/A   Clear
7:15 AM 53.6 °F - 48.2 °F 82% 29.37 in 10.0 mi SW 17.3 mph - N/A   Clear
7:35 AM 53.6 °F - 48.2 °F 82% 29.36 in 10.0 mi SSW 15.0 mph 21.9 mph N/A   Clear
7:55 AM 55.4 °F - 48.2 °F 77% 29.37 in 10.0 mi SSW 18.4 mph 25.3 mph N/A   Clear
8:15 AM 55.4 °F - 48.2 °F 77% 29.37 in 10.0 mi SSW 21.9 mph - N/A   Clear
8:35 AM 55.4 °F - 50.0 °F 82% 29.36 in 10.0 mi SSW 27.6 mph 32.2 mph N/A   Scattered Clouds
8:55 AM 57.2 °F - 50.0 °F 77% 29.37 in 10.0 mi SSW 25.3 mph 34.5 mph N/A   Scattered Clouds
9:15 AM 57.2 °F - 48.2 °F 72% 29.37 in 10.0 mi SSW 31.1 mph 40.3 mph N/A   Clear
9:35 AM 57.2 °F - 48.2 °F 72% 29.37 in 10.0 mi SSW 24.2 mph 35.7 mph N/A   Scattered Clouds
9:55 AM 57.2 °F - 50.0 °F 77% 29.37 in 10.0 mi SSW 28.8 mph 36.8 mph N/A   Mostly Cloudy
10:15 AM 59.0 °F - 50.0 °F 72% 29.39 in 10.0 mi SW 26.5 mph 33.4 mph N/A   Mostly Cloudy
10:35 AM 59.0 °F - 48.2 °F 67% 29.39 in 10.0 mi SW 27.6 mph 32.2 mph N/A   Scattered Clouds
10:55 AM 60.8 °F - 50.0 °F 68% 29.39 in 10.0 mi SW 28.8 mph 38.0 mph N/A   Scattered Clouds
11:15 AM 60.8 °F - 50.0 °F 68% 29.39 in 10.0 mi SW 26.5 mph 33.4 mph N/A   Scattered Clouds
11:35 AM 62.6 °F - 50.0 °F 63% 29.40 in 10.0 mi SW 24.2 mph 35.7 mph N/A   Scattered Clouds
11:55 AM 62.6 °F - 48.2 °F 59% 29.41 in 10.0 mi WSW 29.9 mph 35.7 mph N/A   Scattered Clouds
12:15 PM 62.6 °F - 48.2 °F 59% 29.40 in 10.0 mi WSW 25.3 mph 34.5 mph N/A   Mostly Cloudy
12:35 PM 62.6 °F - 48.2 °F 59% 29.41 in 10.0 mi WSW 26.5 mph 36.8 mph N/A   Scattered Clouds
12:55 PM 64.4 °F - 50.0 °F 59% 29.41 in 10.0 mi WSW 20.7 mph 34.5 mph N/A   Scattered Clouds
1:15 PM 64.4 °F - 48.2 °F 56% 29.42 in 10.0 mi WSW 24.2 mph 32.2 mph N/A   Scattered Clouds
1:35 PM 64.4 °F - 46.4 °F 52% 29.42 in 10.0 mi WSW 26.5 mph 33.4 mph N/A   Scattered Clouds
1:55 PM 66.2 °F - 46.4 °F 49% 29.42 in 10.0 mi SW 24.2 mph 33.4 mph N/A   Scattered Clouds
2:15 PM 66.2 °F - 46.4 °F 49% 29.42 in 10.0 mi WSW 25.3 mph 34.5 mph N/A   Scattered Clouds
2:35 PM 66.2 °F - 44.6 °F 46% 29.42 in 10.0 mi West 19.6 mph 35.7 mph N/A   Scattered Clouds
2:55 PM 66.2 °F - 44.6 °F 46% 29.42 in 10.0 mi WSW 23.0 mph 33.4 mph N/A   Scattered Clouds
3:15 PM 66.2 °F - 44.6 °F 46% 29.43 in 10.0 mi West 23.0 mph 33.4 mph N/A   Scattered Clouds
3:35 PM 66.2 °F - 44.6 °F 46% 29.42 in 10.0 mi West 26.5 mph 33.4 mph N/A   Scattered Clouds
3:55 PM 66.2 °F - 42.8 °F 43% 29.42 in 10.0 mi West 23.0 mph 34.5 mph N/A   Scattered Clouds
4:15 PM 66.2 °F - 41.0 °F 40% 29.43 in 10.0 mi West 25.3 mph 33.4 mph N/A   Scattered Clouds
4:35 PM 66.2 °F - 42.8 °F 43% 29.43 in 10.0 mi West 24.2 mph 32.2 mph N/A   Scattered Clouds
4:55 PM 66.2 °F - 42.8 °F 43% 29.43 in 10.0 mi WSW 26.5 mph 34.5 mph N/A   Scattered Clouds
5:15 PM 64.4 °F - 44.6 °F 49% 29.45 in 10.0 mi West 26.5 mph 32.2 mph N/A   Scattered Clouds
5:35 PM 62.6 °F - 44.6 °F 52% 29.46 in 10.0 mi West 20.7 mph 29.9 mph N/A   Scattered Clouds
5:55 PM 60.8 °F - 46.4 °F 59% 29.48 in 10.0 mi West 23.0 mph 32.2 mph N/A   Scattered Clouds
6:15 PM 59.0 °F - 44.6 °F 59% 29.50 in 10.0 mi West 25.3 mph 31.1 mph N/A   Mostly Cloudy
6:35 PM 59.0 °F - 44.6 °F 59% 29.50 in 10.0 mi West 23.0 mph 32.2 mph N/A   Overcast
6:55 PM 57.2 °F - 44.6 °F 63% 29.50 in 10.0 mi WNW 19.6 mph 28.8 mph N/A   Mostly Cloudy
7:15 PM 55.4 °F - 44.6 °F 67% 29.52 in 10.0 mi WNW 19.6 mph 25.3 mph N/A   Overcast
7:35 PM 51.8 °F - 46.4 °F 82% 29.53 in 10.0 mi WNW 15.0 mph 25.3 mph 0.01 in Rain Light Rain
7:55 PM 51.8 °F - 46.4 °F 82% 29.53 in 10.0 mi WNW 18.4 mph 24.2 mph 0.02 in Rain , Thunderstorm Light Thunderstorms and Rain
8:15 PM 51.8 °F - 46.4 °F 82% 29.53 in 10.0 mi NW 17.3 mph 23.0 mph N/A   Overcast
8:35 PM 48.2 °F - 44.6 °F 87% 29.55 in 10.0 mi NW 19.6 mph 25.3 mph N/A   Overcast
8:55 PM 44.6 °F 36.6 °F 41.0 °F 87% 29.57 in 10.0 mi WNW 19.6 mph 26.5 mph N/A   Overcast
9:15 PM 42.8 °F 34.8 °F 39.2 °F 87% 29.58 in 10.0 mi WNW 17.3 mph 27.6 mph N/A   Drizzle
9:35 PM 41.0 °F 32.2 °F 37.4 °F 87% 29.60 in 5.0 mi WNW 18.4 mph 25.3 mph N/A Rain Heavy Rain
9:55 PM 39.2 °F 29.0 °F 37.4 °F 93% 29.62 in 7.0 mi NW 21.9 mph 26.5 mph 0.01 in Rain Light Rain
10:15 PM 37.4 °F 26.6 °F 35.6 °F 93% 29.63 in 7.0 mi NW 21.9 mph 31.1 mph N/A Rain Rain
10:35 PM 37.4 °F 27.5 °F 33.8 °F 87% 29.65 in 4.0 mi NW 18.4 mph 29.9 mph 0.02 in   Heavy Drizzle
10:55 PM 35.6 °F 25.5 °F 33.8 °F 93% 29.66 in 5.0 mi NW 17.3 mph 25.3 mph 0.03 in Rain Light Rain
11:15 PM 35.6 °F 25.9 °F 33.8 °F 93% 29.67 in 7.0 mi NW 16.1 mph - N/A   Overcast
11:35 PM 35.6 °F 25.5 °F 30.2 °F 81% 29.68 in 3.0 mi NW 17.3 mph 26.5 mph N/A   Overcast
11:55 PM 33.8 °F 23.2 °F 30.2 °F 87% 29.69 in 2.0 mi NW 17.3 mph 29.9 mph N/A Snow Light Snow